Weather in Wadi ad Dawasir

Saudi Arabia     20°28′00″N   44°47′46″E
temp.,
°C
wind,
m/s
gust,
m/s
humid.,
%
clouds,
%
prec.,
mm/h
press.,
hPa
HPBL,
m
13 april, tue
tue1300:00+30w572080 0.0 100978
03:00+27wnw443844 0.0 100935
06:00+25w22385 0.0 101114
09:00+31nnw44233 0.0 1011755
12:00+36s24150 0.0 10092431
15:00+38sw23124 0.0 10054080
18:00+36nnw33130 0.0 100513
21:00+33n2316100 0.0 100727
14 april, wed
wed1400:00+31wnw610256 0.0 1009162
03:00+27n563032 0.0 100879
06:00+26nnw583977 0.0 1010131
09:00+31nne3427100 0.0 1011904
12:00+35n3218100 0.0 10082276
15:00+37n231555 0.0 10053320
18:00+35nne331675 0.0 100525
21:00+31w452334 0.0 100865
15 april, thu
thu1500:00+30nw8132867 0.0 1009430
03:00+27nw333628 0.0 100939
06:00+25w4640100 0.0 101071
09:00+30ene7723100 0.0 1012890
12:00+35ene551597 0.0 10091683
15:00+37e431281 0.0 10063080
18:00+35ene44140 0.0 100530
21:00+29wnw81129100 0.2 1010329
16 april, fri
fri1600:00+28nw81031100 0.0 1011368
03:00+27n0228100 0.0 100935
06:00+24ene611245 0.0 1011214
09:00+28e910185 0.0 10131106
12:00+34e881343 0.0 10111787
15:00+36ese98115 0.0 10082570
18:00+31ese81217100 0.1 1009393
21:00+29ene61117100 0.3 1011216
17 april, sat
sat1700:00+26ene581898 0.0 1012146
03:00+25ene461752 0.0 101299
06:00+23se33205 0.0 101319
09:00+30ese79135 0.0 10151042
12:00+34ese881276 0.0 10122156
15:00+35se771288 0.2 10092754
18:00+30ese69199 0.3 1010242
21:00+27ese5112245 0.4 1012149